Home > Weather > Nzérékoré > Past weeks

Flag for Guinea Weather for the Past 2 Weeks in Nzérékoré, Guinea

Now
81 °F

Passing clouds.


Feels Like: 88 °F
Forecast: 73 / 89 °F
Wind: No wind

Location: Roberts Field

Current Time: May 6, 2016 at 2:51:08 AM

Latest Report: May 6, 2016 at 1:00 AM


Visibility: N/A

Pressure: 29.92 "Hg

Humidity: 94%

Dew Point: 79 °F

Location of NzérékoréLocation

Historic Weather in Nzérékoré — Graph

°F

Nzérékoré Temperature Yesterday

Maximum temperature yesterday: 90 °F (at 10:30 AM)
Minimum temperature yesterday: 77 °F (at 4:30 AM)
Average temperature yesterday: 82 °F

High & Low Weather Summary for the Past Weeks

 TemperatureHumidityPressure
High95 °F (Apr 27, 3:30 PM)100% (May 1, 7:00 AM)29.95 "Hg (May 1, 7:00 AM)
Low73 °F (May 3, 2:30 AM)56% (Apr 27, 1:30 PM)29.74 "Hg (Apr 25, 3:00 PM)
Average83 °F82%29.84 "Hg
* Reported Apr 21 3:30 PM — May 6 1:00 AM, Nzérékoré, Weather by CustomWeather, © 2016

Note: Actual official high and low records may vary slightly from our data, if they occured in-between our weather recording intervals... More about our weather records

Advertising

Nzérékoré Weather History for the Previous 24 Hours

Scroll right to see more
 ConditionsComfort  
Time TempWeatherWind HumidityBarometerVisibility
1:00 AM
Fri, May 6
81 °FPassing clouds.No wind94%29.92 "HgN/A
12:30 AM81 °FPassing clouds.No wind94%29.95 "HgN/A
12:00 AM81 °FPassing clouds.No wind94%29.95 "HgN/A
11:30 PM
Thu, May 5
79 °FPassing clouds.No wind94%29.95 "HgN/A
11:00 PM81 °FPassing clouds.No wind89%29.95 "HgN/A
10:30 PM81 °FPassing clouds.No wind89%29.92 "HgN/A
10:00 PM81 °FPassing clouds.No wind89%29.92 "HgN/A
9:30 PM81 °FPassing clouds.No wind94%29.95 "HgN/A
9:00 PM81 °FPassing clouds.No wind94%29.95 "HgN/A
8:00 PM82 °FPassing clouds.No wind84%29.89 "HgN/A
7:30 PM82 °FPartly sunny.6 mph84%29.89 "HgN/A
6:30 PM84 °FThunderstorms. Partly sunny.10 mph79%29.86 "HgN/A
6:00 PM84 °FThunderstorms. Partly sunny.12 mph79%29.86 "HgN/A
5:30 PM84 °FThunderstorms. Partly sunny.13 mph79%29.86 "HgN/A
5:00 PM86 °FThunderstorms. Partly sunny.14 mph75%29.83 "HgN/A
4:30 PM86 °FThunderstorms. Partly sunny.13 mph75%29.83 "HgN/A
4:00 PM88 °FPartly sunny.15 mph75%29.83 "HgN/A
3:30 PM88 °FPartly sunny.14 mph75%29.83 "HgN/A
3:00 PM88 °FPartly sunny.14 mph75%29.83 "HgN/A
2:30 PM88 °FPartly sunny.14 mph75%29.86 "HgN/A
2:00 PM90 °FBroken clouds.No wind67%29.86 "HgN/A
1:30 PM90 °FScattered clouds.3 mph71%29.86 "HgN/A
1:00 PM86 °FPartly sunny.5 mph79%29.89 "HgN/A
12:30 PM84 °FThunderstorms. Partly sunny.3 mph84%29.89 "HgN/A
12:00 PM84 °FThunderstorms. Partly sunny.5 mph84%29.92 "HgN/A
11:30 AM86 °FThunderstorms. Partly sunny.3 mph79%29.92 "HgN/A
11:00 AM86 °FThunderstorms. Partly sunny.No wind79%29.92 "HgN/A
10:30 AM90 °FPartly sunny.No wind71%29.92 "HgN/A
10:00 AM86 °FPartly sunny.No wind79%29.95 "HgN/A
9:30 AM86 °FPartly sunny.No wind84%29.92 "HgN/A
9:00 AM86 °FPartly sunny.No wind84%29.92 "HgN/A
8:30 AM84 °FScattered clouds.No wind79%29.92 "HgN/A
8:00 AM81 °FScattered clouds.No wind94%29.92 "Hg5 mi
7:30 AM79 °FScattered clouds.No wind94%29.89 "Hg5 mi
7:00 AM77 °FPassing clouds.No wind94%29.86 "Hg5 mi
6:30 AM77 °FPassing clouds.No wind94%29.86 "Hg5 mi
6:00 AM77 °FThunderstorms. Passing clouds.No wind94%29.86 "HgN/A
5:30 AM77 °FThunderstorms. Passing clouds.No wind94%29.86 "HgN/A
5:00 AM77 °FThunderstorms. Passing clouds.No wind94%29.86 "HgN/A
4:30 AM77 °FThunderstorms. Passing clouds.No wind94%29.83 "HgN/A
4:00 AM79 °FThunderstorms. Passing clouds.No wind94%29.86 "HgN/A
3:30 AM79 °FThunderstorms. Passing clouds.No wind94%29.83 "HgN/A
3:00 AM79 °FPassing clouds.No wind94%29.86 "HgN/A
2:30 AM79 °FPassing clouds.No wind94%29.86 "HgN/A
2:00 AM79 °FPassing clouds.No wind94%29.86 "HgN/A
Weather by CustomWeather, © 2016

See weather overviewHow to use our weather pages